User: anonymous   Login
Location: Unspecified
(0.0000°N, 0.0000°E)
Time: 20:13:55
(UTC+00:00)
Language:

RS-8 - Orbit

View from above orbital plane
View from above orbital plane
View from above satellite
View from above satellite

Ground track
Ground track

The orbit data is extracted from the following two-line orbital elements,

1 13002U 81120F   21065.95496741 -.00000033  00000-0 -45052-3 0  9994
2 13002  82.9557 285.1686 0052281 111.3094 315.5571 12.13802891737523
Epoch (UTC): 06 March 2021 22:55:09
Eccentricity: 0.0052281
inclination: 82.9557°
perigee height: 1578 km
apogee height: 1661 km
right ascension of ascending node: 285.1686°
argument of perigee: 111.3094°
revolutions per day: 12.13802891
mean anomaly at epoch: 315.5571°
orbit number at epoch: 73752

The dashed part of the orbit path shows where the satellite is in the earth's shadow,  

DLR